sat.trackr.live / text

‹ back to catalog

STARLINK-31141

NORAD 58803 · 2024-012S

PAYLOAD ACTIVE UNKNOWN

§ Identity

Operator
Country
US
Launch date
2024-01-15
Launch site
AFETR
Launch vehicle
Mass (kg)
RCS (m²)

Purposes: comms

External: N2YO · Heavens-Above · Gunter

§ Orbital elements

Epoch: 2026-05-25T04:35:16.191168Z

Period
94.27 min
Inclination
43.0026°
Eccentricity
0.0001565
Mean motion
15.27594741 rev/d
Perigee alt
481.9 km
Apogee alt
484.1 km
Semi-major
6,861.1 km
B*
1.0333e-4
RAAN
93.3940°
Arg perigee
266.6808°
Mean anomaly
93.3865°
Rev number
13,293

§ Raw data

STARLINK-311411 58803U 24012S   26145.19115962  .00002583  00000+0  10333-3 0  99952 58803  43.0026  93.3940 0001565 266.6808  93.3865 15.27594741132939

JSON: /api/v1/satellites/58803 · /tle

For live sub-satellite position, see the globe view (requires WebGL).

§ Visibility from observer

Set your observer location to see the next 7 days of passes ≥ 10°. The values pass through the URL so the page stays shareable.

No JS? Fill the form by hand. The geolocation button needs JavaScript.